sat.trackr.live / text

‹ back to catalog

STARLINK-32923

NORAD 63097 · 2025-037W

PAYLOAD ACTIVE UNKNOWN

§ Identity

Operator
Country
US
Launch date
2025-02-23
Launch site
AFWTR
Launch vehicle
Mass (kg)
RCS (m²)

Purposes: comms

External: N2YO · Heavens-Above · Gunter

§ Orbital elements

Epoch: 2026-09-20T07:15:51.423264Z

Period
94.14 min
Inclination
70.0005°
Eccentricity
0.0002882
Mean motion
15.29592931 rev/d
Perigee alt
475.1 km
Apogee alt
479.0 km
Semi-major
6,855.2 km
B*
3.8270e-4
RAAN
221.3579°
Arg perigee
271.7240°
Mean anomaly
88.3605°
Rev number
8,781

§ Raw data

STARLINK-329231 63097U 25037W   26263.30267851  .00010894  00000+0  38270-3 0  99972 63097  70.0005 221.3579 0002882 271.7240  88.3605 15.29592931 87811

JSON: /api/v1/satellites/63097 · /tle

For live sub-satellite position, see the globe view (requires WebGL).

§ Visibility from observer

Set your observer location to see the next 7 days of passes ≥ 10°. The values pass through the URL so the page stays shareable.

No JS? Fill the form by hand. The geolocation button needs JavaScript.